Location: Wald
(31.7579°N, 86.6655°W)
Time: 21:16:43
(UTC+00:00)

Cosmos 1892 - Pass Details

Date: 14 July 2020
Orbit: 505 x 524 km, 82.5° (Epoch: 13 August)

Event Time Altitude Azimuth Distance (km) Brightness Sun altitude
Exits shadow 02:56:20 59° 48° (NE) 592 2.8 -22.0°
Drops below altitude 10° 02:59:37 10° 12° (NNE) 1,737 5.8 -22.5°
Sets 03:01:46 0° 10° (N) 2,631 6.8 -22.8°
